GLO2179 SBVT-SBSV

Flight info

Callsign GLO2179
Flight time 1h 14m
Altitude 35000
Route GIDOD DCT XUXUG
Aircraft B738/M-SDE2E3FGHIRWXY/LB1

Departure

Time 2026-05-07 05:00
Airport Eurico de Aguiar Salles International Airport (SBVT)

Arrival

Time 2026-05-07 06:14
Airport Deputado Luiz Eduardo Magalhães International Airport (SBSV)
Time Latitude Longitude Altitude Speed Heading
2026-05-07 04:33 -20.25803 -40.28916 12 ft 0 kts 302°
2026-05-07 04:48 -20.25807 -40.28911 12 ft 2 kts 302°
2026-05-07 04:48 -20.25814 -40.28897 12 ft 2 kts 302°
2026-05-07 04:49 -20.25827 -40.28888 12 ft 2 kts 350°
2026-05-07 04:49 -20.25841 -40.28889 12 ft 2 kts 29°
2026-05-07 04:49 -20.25847 -40.28894 12 ft 0 kts 39°
2026-05-07 04:53 -20.25846 -40.28893 12 ft 2 kts 39°
2026-05-07 04:53 -20.25810 -40.28869 12 ft 6 kts 31°
2026-05-07 04:53 -20.25769 -40.28843 12 ft 6 kts 31°
2026-05-07 04:53 -20.25733 -40.28820 12 ft 5 kts 30°
2026-05-07 04:54 -20.25706 -40.28797 12 ft 4 kts 72°
2026-05-07 04:54 -20.25714 -40.28764 12 ft 5 kts 117°
2026-05-07 04:54 -20.25739 -40.28725 12 ft 7 kts 123°
2026-05-07 04:54 -20.25771 -40.28671 12 ft 9 kts 121°
2026-05-07 04:55 -20.25809 -40.28602 12 ft 11 kts 120°
2026-05-07 04:55 -20.25855 -40.28522 12 ft 13 kts 117°
2026-05-07 04:55 -20.25882 -40.28418 12 ft 15 kts 102°
2026-05-07 04:55 -20.25906 -40.28304 12 ft 16 kts 102°
2026-05-07 04:56 -20.25931 -40.28187 14 ft 15 kts 103°
2026-05-07 04:56 -20.26000 -40.28114 14 ft 15 kts 170°
2026-05-07 04:56 -20.26112 -40.28098 14 ft 16 kts 173°
2026-05-07 04:56 -20.26231 -40.28080 14 ft 17 kts 172°
2026-05-07 04:57 -20.26356 -40.28061 14 ft 18 kts 171°
2026-05-07 04:57 -20.26487 -40.28042 14 ft 19 kts 172°
2026-05-07 04:57 -20.26597 -40.28022 14 ft 7 kts 151°
2026-05-07 04:57 -20.26615 -40.27972 14 ft 7 kts 83°
2026-05-07 04:58 -20.26606 -40.27912 14 ft 8 kts 79°
2026-05-07 04:58 -20.26581 -40.27861 14 ft 7 kts 26°
2026-05-07 04:58 -20.26544 -40.27859 14 ft 0 kts 353°
2026-05-07 04:59 -20.26468 -40.27869 14 ft 36 kts 351°
2026-05-07 04:59 -20.25925 -40.27951 14 ft 118 kts 352°
2026-05-07 04:59 -20.24874 -40.28106 37 ft 181 kts 352°
2026-05-07 05:00 -20.23571 -40.28281 769 ft 191 kts 353°
2026-05-07 05:00 -20.22262 -40.28341 1743 ft 191 kts
2026-05-07 05:00 -20.20987 -40.27855 2482 ft 203 kts 34°
2026-05-07 05:00 -20.19943 -40.26825 3092 ft 211 kts 54°
2026-05-07 05:01 -20.19297 -40.25442 3731 ft 209 kts 71°
2026-05-07 05:01 -20.18796 -40.23991 4232 ft 216 kts 64°
2026-05-07 05:01 -20.17955 -40.22673 4911 ft 213 kts 45°
2026-05-07 05:01 -20.16740 -40.21748 5298 ft 228 kts 27°
2026-05-07 05:02 -20.15178 -40.21103 5668 ft 243 kts 21°
2026-05-07 05:02 -20.13557 -40.20501 6071 ft 258 kts 23°
2026-05-07 05:02 -20.11849 -40.19739 6578 ft 268 kts 24°
2026-05-07 05:02 -20.10095 -40.19074 7232 ft 274 kts 15°
2026-05-07 05:03 -20.08185 -40.19024 7864 ft 283 kts 349°
2026-05-07 05:03 -20.06313 -40.19739 8603 ft 287 kts 341°
2026-05-07 05:03 -20.04366 -40.20101 9241 ft 286 kts
2026-05-07 05:03 -20.02470 -40.19547 9976 ft 285 kts 25°
2026-05-07 05:04 -20.00651 -40.18642 10591 ft 292 kts 27°
2026-05-07 05:04 -19.98751 -40.17710 10999 ft 308 kts 25°
2026-05-07 05:04 -19.96730 -40.16816 11409 ft 323 kts 23°
2026-05-07 05:04 -19.94569 -40.15931 11781 ft 339 kts 22°
2026-05-07 05:05 -19.92328 -40.15048 12256 ft 350 kts 21°
2026-05-07 05:05 -19.90000 -40.14142 12913 ft 356 kts 21°
2026-05-07 05:05 -19.87680 -40.13239 13622 ft 359 kts 21°
2026-05-07 05:05 -19.85320 -40.12318 14294 ft 364 kts 22°
2026-05-07 05:06 -19.82942 -40.11385 15025 ft 367 kts 22°
2026-05-07 05:06 -19.80531 -40.10437 15725 ft 371 kts 22°
2026-05-07 05:06 -19.78087 -40.09473 16408 ft 374 kts 22°
2026-05-07 05:06 -19.75656 -40.08514 17052 ft 378 kts 22°
2026-05-07 05:07 -19.73187 -40.07541 17700 ft 381 kts 22°
2026-05-07 05:07 -19.70682 -40.06552 18266 ft 387 kts 22°
2026-05-07 05:07 -19.68126 -40.05543 18848 ft 392 kts 22°
2026-05-07 05:07 -19.65554 -40.04530 19428 ft 397 kts 21°
2026-05-07 05:08 -19.62927 -40.03561 19981 ft 403 kts 18°
2026-05-07 05:08 -19.60206 -40.02793 20538 ft 408 kts 14°
2026-05-07 05:08 -19.57414 -40.02177 21073 ft 413 kts 12°
2026-05-07 05:08 -19.54559 -40.01627 21638 ft 417 kts 11°
2026-05-07 05:09 -19.51660 -40.01102 22129 ft 423 kts 11°
2026-05-07 05:09 -19.48752 -40.00581 22720 ft 425 kts 11°
2026-05-07 05:09 -19.45845 -40.00056 23213 ft 429 kts 11°
2026-05-07 05:09 -19.42842 -39.99507 23688 ft 434 kts 11°
2026-05-07 05:10 -19.39860 -39.98955 24192 ft 437 kts 11°
2026-05-07 05:10 -19.36852 -39.98395 24663 ft 441 kts 11°
2026-05-07 05:10 -19.33815 -39.97853 25197 ft 443 kts 10°
2026-05-07 05:10 -19.30739 -39.97330 25573 ft 449 kts
2026-05-07 05:11 -19.27644 -39.96817 26061 ft 451 kts
2026-05-07 05:11 -19.24528 -39.96304 26475 ft 456 kts
2026-05-07 05:11 -19.21382 -39.95786 26935 ft 458 kts
2026-05-07 05:11 -19.18206 -39.95261 27303 ft 463 kts
2026-05-07 05:12 -19.15012 -39.94731 27740 ft 465 kts
2026-05-07 05:12 -19.11807 -39.94197 28103 ft 470 kts
2026-05-07 05:12 -19.08572 -39.93656 28596 ft 470 kts
2026-05-07 05:12 -19.05338 -39.93115 29164 ft 469 kts
2026-05-07 05:13 -19.02113 -39.92573 29821 ft 465 kts
2026-05-07 05:13 -18.98928 -39.92039 30295 ft 466 kts
2026-05-07 05:13 -18.95749 -39.91505 30717 ft 467 kts
2026-05-07 05:13 -18.92540 -39.90966 31189 ft 466 kts
2026-05-07 05:14 -18.89317 -39.90425 31641 ft 466 kts
2026-05-07 05:14 -18.86054 -39.89877 32046 ft 467 kts
2026-05-07 05:14 -18.82978 -39.89359 32459 ft 466 kts
2026-05-07 05:14 -18.79793 -39.88824 32871 ft 466 kts
2026-05-07 05:15 -18.76574 -39.88284 33278 ft 465 kts
2026-05-07 05:15 -18.73381 -39.87749 33712 ft 465 kts
2026-05-07 05:15 -18.70164 -39.87210 34130 ft 464 kts
2026-05-07 05:15 -18.66983 -39.86678 34578 ft 462 kts
2026-05-07 05:16 -18.63800 -39.86145 34997 ft 461 kts
2026-05-07 05:16 -18.60617 -39.85612 35092 ft 465 kts
2026-05-07 05:16 -18.54231 -39.84543 35090 ft 461 kts
2026-05-07 05:17 -18.47882 -39.83481 35091 ft 462 kts
2026-05-07 05:17 -18.41521 -39.82417 35090 ft 463 kts
2026-05-07 05:18 -18.35143 -39.81351 35090 ft 461 kts
2026-05-07 05:18 -18.28790 -39.80291 35088 ft 462 kts
2026-05-07 05:19 -18.22460 -39.79236 35089 ft 460 kts
2026-05-07 05:19 -18.16089 -39.78176 35090 ft 461 kts
2026-05-07 05:20 -18.09759 -39.77122 35088 ft 460 kts
2026-05-07 05:20 -18.03417 -39.76067 35090 ft 460 kts
2026-05-07 05:21 -17.93931 -39.74492 35088 ft 462 kts
2026-05-07 05:22 -17.87570 -39.73436 35089 ft 459 kts
2026-05-07 05:22 -17.81244 -39.72387 35087 ft 461 kts
2026-05-07 05:23 -17.74894 -39.71335 35085 ft 460 kts
2026-05-07 05:23 -17.68569 -39.70287 35087 ft 460 kts
2026-05-07 05:24 -17.62241 -39.69238 35088 ft 460 kts
2026-05-07 05:24 -17.55930 -39.68193 35090 ft 460 kts
2026-05-07 05:25 -17.49591 -39.67147 35086 ft 460 kts
2026-05-07 05:25 -17.43262 -39.66102 35089 ft 460 kts
2026-05-07 05:26 -17.36922 -39.65056 35086 ft 459 kts
2026-05-07 05:26 -17.30610 -39.64013 35083 ft 460 kts
2026-05-07 05:27 -17.24281 -39.62968 35082 ft 460 kts
2026-05-07 05:27 -17.17911 -39.61919 35087 ft 460 kts
2026-05-07 05:28 -17.11610 -39.60883 35089 ft 460 kts
2026-05-07 05:28 -17.05237 -39.59835 35088 ft 460 kts
2026-05-07 05:29 -16.98918 -39.58798 35085 ft 459 kts
2026-05-07 05:29 -16.92604 -39.57761 35083 ft 459 kts
2026-05-07 05:30 -16.86293 -39.56724 35084 ft 458 kts
2026-05-07 05:30 -16.79948 -39.55684 35085 ft 459 kts
2026-05-07 05:31 -16.73653 -39.54655 35083 ft 458 kts
2026-05-07 05:31 -16.67366 -39.53625 35082 ft 457 kts
2026-05-07 05:32 -16.61027 -39.52586 35080 ft 457 kts
2026-05-07 05:32 -16.54741 -39.51557 35082 ft 457 kts
2026-05-07 05:33 -16.48415 -39.50522 35078 ft 457 kts
2026-05-07 05:33 -16.42138 -39.49497 35084 ft 457 kts
2026-05-07 05:34 -16.35831 -39.48467 35083 ft 456 kts
2026-05-07 05:34 -16.29543 -39.47441 35082 ft 457 kts
2026-05-07 05:35 -16.23243 -39.46414 35082 ft 455 kts
2026-05-07 05:35 -16.16969 -39.45392 35077 ft 455 kts
2026-05-07 05:36 -16.10697 -39.44370 35077 ft 455 kts
2026-05-07 05:36 -16.04467 -39.43356 35072 ft 455 kts
2026-05-07 05:37 -15.98187 -39.42334 35069 ft 455 kts
2026-05-07 05:37 -15.91924 -39.41317 35071 ft 455 kts
2026-05-07 05:38 -15.85640 -39.40298 35068 ft 455 kts
2026-05-07 05:38 -15.79376 -39.39281 35068 ft 453 kts
2026-05-07 05:39 -15.73143 -39.38270 35070 ft 453 kts
2026-05-07 05:39 -15.66912 -39.37259 35070 ft 452 kts
2026-05-07 05:40 -15.60707 -39.36254 35067 ft 453 kts
2026-05-07 05:40 -15.54477 -39.35245 35061 ft 451 kts
2026-05-07 05:41 -15.48259 -39.34238 35066 ft 451 kts
2026-05-07 05:41 -15.42065 -39.33236 35061 ft 451 kts
2026-05-07 05:42 -15.35863 -39.32234 35058 ft 450 kts
2026-05-07 05:42 -15.29656 -39.31231 35060 ft 450 kts
2026-05-07 05:43 -15.23453 -39.30230 35055 ft 449 kts
2026-05-07 05:43 -15.17275 -39.29233 35055 ft 450 kts
2026-05-07 05:44 -15.11087 -39.28236 35055 ft 449 kts
2026-05-07 05:44 -15.04913 -39.27240 35058 ft 448 kts
2026-05-07 05:45 -14.98742 -39.26247 35053 ft 447 kts
2026-05-07 05:45 -14.92557 -39.25251 35055 ft 447 kts
2026-05-07 05:46 -14.86408 -39.24263 35047 ft 446 kts
2026-05-07 05:46 -14.80264 -39.23277 35045 ft 447 kts
2026-05-07 05:47 -14.74077 -39.22282 35049 ft 445 kts
2026-05-07 05:47 -14.71048 -39.21795 34857 ft 439 kts
2026-05-07 05:47 -14.68053 -39.21313 34579 ft 430 kts
2026-05-07 05:47 -14.65130 -39.20843 34179 ft 425 kts
2026-05-07 05:48 -14.62212 -39.20375 33705 ft 421 kts
2026-05-07 05:48 -14.59305 -39.19909 33222 ft 418 kts
2026-05-07 05:48 -14.56450 -39.19451 32773 ft 414 kts
2026-05-07 05:48 -14.53603 -39.18995 32301 ft 412 kts
2026-05-07 05:49 -14.50757 -39.18538 31812 ft 410 kts
2026-05-07 05:49 -14.47944 -39.18087 31320 ft 408 kts
2026-05-07 05:49 -14.45121 -39.17635 30825 ft 406 kts
2026-05-07 05:49 -14.42326 -39.17187 30336 ft 405 kts
2026-05-07 05:50 -14.39542 -39.16741 29846 ft 403 kts
2026-05-07 05:50 -14.36778 -39.16299 29359 ft 401 kts
2026-05-07 05:50 -14.34030 -39.15859 28874 ft 399 kts
2026-05-07 05:50 -14.31288 -39.15420 28392 ft 397 kts
2026-05-07 05:51 -14.28574 -39.14987 27915 ft 395 kts
2026-05-07 05:51 -14.25871 -39.14555 27440 ft 393 kts
2026-05-07 05:51 -14.23177 -39.14125 26968 ft 391 kts
2026-05-07 05:51 -14.20471 -39.13692 26494 ft 389 kts
2026-05-07 05:52 -14.17811 -39.13266 26029 ft 387 kts
2026-05-07 05:52 -14.15172 -39.12844 25565 ft 385 kts
2026-05-07 05:52 -14.12516 -39.12419 25099 ft 383 kts
2026-05-07 05:52 -14.09866 -39.11996 24637 ft 381 kts
2026-05-07 05:53 -14.07277 -39.11583 24182 ft 379 kts
2026-05-07 05:53 -14.04661 -39.11166 23725 ft 377 kts
2026-05-07 05:53 -14.02059 -39.10750 23272 ft 375 kts
2026-05-07 05:53 -13.99496 -39.10342 22819 ft 373 kts
2026-05-07 05:54 -13.96922 -39.09931 22367 ft 371 kts
2026-05-07 05:54 -13.94387 -39.09527 21919 ft 369 kts
2026-05-07 05:54 -13.91829 -39.09119 21469 ft 367 kts
2026-05-07 05:54 -13.89313 -39.08718 21023 ft 365 kts
2026-05-07 05:55 -13.86811 -39.08319 20581 ft 362 kts
2026-05-07 05:55 -13.84344 -39.07925 20148 ft 359 kts
2026-05-07 05:55 -13.81860 -39.07531 19707 ft 357 kts
2026-05-07 05:55 -13.79420 -39.07143 19267 ft 355 kts
2026-05-07 05:56 -13.76990 -39.06757 18832 ft 352 kts
2026-05-07 05:56 -13.74555 -39.06369 18403 ft 350 kts
2026-05-07 05:56 -13.72166 -39.05956 17968 ft 347 kts 13°
2026-05-07 05:56 -13.69875 -39.05228 17549 ft 342 kts 26°
2026-05-07 05:57 -13.67848 -39.03973 17126 ft 338 kts 38°
2026-05-07 05:57 -13.66012 -39.02509 16707 ft 335 kts 40°
2026-05-07 05:57 -13.64219 -39.00985 16283 ft 333 kts 41°
2026-05-07 05:57 -13.62437 -38.99461 15865 ft 331 kts 41°
2026-05-07 05:58 -13.60662 -38.97962 15451 ft 328 kts 41°
2026-05-07 05:58 -13.58899 -38.96491 15032 ft 326 kts 40°
2026-05-07 05:58 -13.57144 -38.95040 14622 ft 321 kts 40°
2026-05-07 05:58 -13.55413 -38.93617 14232 ft 315 kts 40°
2026-05-07 05:59 -13.53716 -38.92225 13830 ft 309 kts 41°
2026-05-07 05:59 -13.52064 -38.90873 13448 ft 307 kts 41°
2026-05-07 05:59 -13.50395 -38.89504 13050 ft 305 kts 41°
2026-05-07 05:59 -13.48749 -38.88153 12658 ft 303 kts 41°
2026-05-07 06:00 -13.47093 -38.86795 12263 ft 301 kts 41°
2026-05-07 06:00 -13.45465 -38.85460 11894 ft 299 kts 41°
2026-05-07 06:00 -13.43836 -38.84123 11501 ft 297 kts 41°
2026-05-07 06:00 -13.42232 -38.82808 11117 ft 295 kts 41°
2026-05-07 06:01 -13.40643 -38.81504 10749 ft 293 kts 41°
2026-05-07 06:01 -13.39048 -38.80195 10369 ft 291 kts 41°
2026-05-07 06:01 -13.37483 -38.78909 9994 ft 289 kts 41°
2026-05-07 06:01 -13.35940 -38.77639 9797 ft 280 kts 41°
2026-05-07 06:02 -13.34410 -38.76380 9393 ft 279 kts 41°
2026-05-07 06:02 -13.32920 -38.75160 9066 ft 271 kts 41°
2026-05-07 06:02 -13.31457 -38.73962 8736 ft 264 kts 41°
2026-05-07 06:02 -13.30034 -38.72794 8397 ft 263 kts 41°
2026-05-07 06:03 -13.28599 -38.71620 8068 ft 265 kts 41°
2026-05-07 06:03 -13.27143 -38.70436 7728 ft 268 kts 41°
2026-05-07 06:03 -13.25682 -38.69251 7392 ft 267 kts 41°
2026-05-07 06:03 -13.24222 -38.68061 7056 ft 265 kts 42°
2026-05-07 06:04 -13.22785 -38.66873 6737 ft 263 kts 43°
2026-05-07 06:04 -13.21393 -38.65715 6511 ft 257 kts 43°
2026-05-07 06:04 -13.19994 -38.64559 6183 ft 255 kts 42°
2026-05-07 06:04 -13.18619 -38.63433 5871 ft 254 kts 42°
2026-05-07 06:05 -13.17228 -38.62299 5548 ft 253 kts 42°
2026-05-07 06:05 -13.15875 -38.61196 5215 ft 245 kts 42°
2026-05-07 06:05 -13.14557 -38.60123 4982 ft 234 kts 43°
2026-05-07 06:05 -13.13327 -38.59124 4977 ft 217 kts 43°
2026-05-07 06:06 -13.12182 -38.58194 4983 ft 203 kts 43°
2026-05-07 06:06 -13.11082 -38.57300 4985 ft 202 kts 43°
2026-05-07 06:06 -13.09980 -38.56412 4972 ft 201 kts 42°
2026-05-07 06:06 -13.08877 -38.55530 4946 ft 200 kts 42°
2026-05-07 06:07 -13.07775 -38.54641 4889 ft 199 kts 43°
2026-05-07 06:07 -13.06694 -38.53753 4845 ft 200 kts 43°
2026-05-07 06:07 -13.05612 -38.52858 4783 ft 196 kts 43°
2026-05-07 06:07 -13.04548 -38.52026 4697 ft 191 kts 36°
2026-05-07 06:08 -13.03282 -38.51550 4509 ft 200 kts 13°
2026-05-07 06:08 -13.01896 -38.51414 4279 ft 199 kts
2026-05-07 06:08 -13.00516 -38.51262 4054 ft 195 kts 12°
2026-05-07 06:08 -12.99199 -38.51076 3846 ft 190 kts 13°
2026-05-07 06:09 -12.97884 -38.50878 3644 ft 186 kts 13°
2026-05-07 06:09 -12.96614 -38.50686 3495 ft 183 kts 13°
2026-05-07 06:09 -12.95378 -38.50387 3353 ft 181 kts 30°
2026-05-07 06:09 -12.94476 -38.49586 3140 ft 169 kts 68°
2026-05-07 06:10 -12.94167 -38.48443 2919 ft 166 kts 82°
2026-05-07 06:10 -12.93923 -38.47323 2719 ft 156 kts 80°
2026-05-07 06:10 -12.93684 -38.46234 2461 ft 155 kts 82°
2026-05-07 06:10 -12.93472 -38.45175 2269 ft 147 kts 82°
2026-05-07 06:11 -12.93272 -38.44196 2099 ft 138 kts 83°
2026-05-07 06:11 -12.93076 -38.43223 1898 ft 141 kts 82°
2026-05-07 06:11 -12.92877 -38.42243 1721 ft 139 kts 83°
2026-05-07 06:11 -12.92681 -38.41270 1525 ft 140 kts 82°
2026-05-07 06:12 -12.92482 -38.40305 1353 ft 139 kts 83°
2026-05-07 06:12 -12.92292 -38.39322 1171 ft 141 kts 83°
2026-05-07 06:12 -12.92087 -38.38333 979 ft 141 kts 82°
2026-05-07 06:12 -12.91887 -38.37352 796 ft 142 kts 83°
2026-05-07 06:13 -12.91692 -38.36358 615 ft 142 kts 82°
2026-05-07 06:13 -12.91484 -38.35367 427 ft 143 kts 82°
2026-05-07 06:13 -12.91291 -38.34372 228 ft 141 kts 82°
2026-05-07 06:13 -12.91088 -38.33389 67 ft 140 kts 82°
2026-05-07 06:14 -12.90904 -38.32452 39 ft 114 kts 79°
2026-05-07 06:14 -12.90792 -38.31910 49 ft 46 kts 77°
2026-05-07 06:14 -12.90756 -38.31719 52 ft 9 kts 103°
2026-05-07 06:14 -12.90810 -38.31702 52 ft 10 kts 197°
2026-05-07 06:15 -12.90879 -38.31707 51 ft 9 kts 191°
2026-05-07 06:15 -12.90918 -38.31756 50 ft 9 kts 261°
2026-05-07 06:15 -12.90929 -38.31826 49 ft 10 kts 257°
2026-05-07 06:15 -12.90950 -38.31908 46 ft 12 kts 256°
2026-05-07 06:16 -12.90969 -38.32001 44 ft 13 kts 258°
2026-05-07 06:16 -12.90988 -38.32102 42 ft 14 kts 258°
2026-05-07 06:16 -12.91009 -38.32204 41 ft 14 kts 258°
2026-05-07 06:16 -12.91031 -38.32312 40 ft 15 kts 258°
2026-05-07 06:17 -12.91052 -38.32418 39 ft 13 kts 258°
2026-05-07 06:17 -12.91068 -38.32495 38 ft 7 kts 253°
2026-05-07 06:17 -12.91098 -38.32524 38 ft 5 kts 191°
2026-05-07 06:17 -12.91125 -38.32527 39 ft 2 kts 201°
2026-05-07 06:18 -12.91133 -38.32533 39 ft 1 kts 220°
2026-05-07 06:18 -12.91140 -38.32541 39 ft 1 kts 231°
2026-05-07 06:18 -12.91152 -38.32575 40 ft 6 kts 257°
2026-05-07 06:18 -12.91162 -38.32623 40 ft 7 kts 258°
2026-05-07 06:19 -12.91174 -38.32679 40 ft 8 kts 258°
2026-05-07 06:19 -12.91186 -38.32723 40 ft 5 kts 222°
2026-05-07 06:19 -12.91221 -38.32722 41 ft 5 kts 165°
2026-05-07 06:19 -12.91242 -38.32719 42 ft 1 kts 189°
2026-05-07 06:20 -12.91241 -38.32744 42 ft 7 kts 315°
2026-05-07 06:20 -12.91190 -38.32739 40 ft 6 kts 60°
2026-05-07 06:20 -12.91189 -38.32725 40 ft 0 kts 117°
2026-05-07 06:20 -12.91209 -38.32708 41 ft 6 kts 157°
2026-05-07 06:21 -12.91239 -38.32700 42 ft 2 kts 168°
2026-05-07 06:21 -12.91253 -38.32697 43 ft 1 kts 168°
2026-05-07 06:21 -12.91259 -38.32695 43 ft 0 kts 168°
2026-05-07 06:21 -12.91265 -38.32694 43 ft 0 kts 168°